User: anonymous   Login
Location: Melbourne
(37.8170°S, 144.9670°E)
Time: 19:12:56
(UTC+11:00)
Language:

Cosmos 962 Rocket - Orbit

View from above orbital plane
View from above orbital plane
View from above satellite
View from above satellite

Ground track
Ground track

The orbit data is extracted from the following two-line orbital elements,

1 10461U 77107B   15083.55718506  .00000008  00000-0 -65100-5 0  9994
2 10461 082.9452 258.8785 0032042 270.6303 146.4724 13.76721658878545
Epoch (UTC): 24 March 2015 13:22:20
Eccentricity: 0.0032042
inclination: 82.9452°
perigee height: 952 km
apogee height: 999 km
right ascension of ascending node: 258.8785°
argument of perigee: 270.6303°
revolutions per day: 13.76721658
mean anomaly at epoch: 146.4724°
orbit number at epoch: 87854

The dashed part of the orbit path shows where the satellite is in the earth's shadow,  

DLR